Torna al catalogo

AZERSPACE 1

AttivoComunicazioniGEO
NORAD 39079·PAYLOAD·🇦🇿 Azerbaijan

Lanciato Feb 7, 2013 da Guiana Space Centre

Loading…

TLE

AggiornatoSource: Space-Track

Epoca: Sep 14, 2026, 14:01 UTC

1 39079U 13006B   26257.58428772  .00000125  00000-0  00000-0 0  9991
2 39079   0.0191 246.3169 0001639 301.1936  62.3850  1.00272154 49700

Traccia AZERSPACE 1 in tempo reale con AllMySat

Download on the App Store